| time (UTC) | temp F | wind direction | speed MPH | gust MPH | rain 1hr in | rain 24hr in | rain mn in | humidity % | barometer mb |
| 20260906020431 | 86 | 247 | 4.0 | 7.0 | 0.00 | 0.00 | 0.00 | 71 | 1010.3 |
| 20260906015430 | 86 | 300 | 1.0 | 10.0 | 0.00 | 0.00 | 0.00 | 71 | 1010.3 |
| 20260906014431 | 86 | 218 | 4.0 | 7.0 | 0.00 | 0.00 | 0.00 | 72 | 1010.0 |
| 20260906013431 | 86 | 287 | 3.0 | 6.0 | 0.00 | 0.00 | 0.00 | 73 | 1010.0 |
| 20260906012431 | 86 | 277 | 4.0 | 9.0 | 0.00 | 0.00 | 0.00 | 73 | 1009.8 |
| 20260906011431 | 86 | 268 | 2.0 | 5.0 | 0.00 | 0.00 | 0.00 | 75 | 1009.7 |
| 20260906010433 | 86 | 248 | 1.0 | 4.0 | 0.00 | 0.00 | 0.00 | 77 | 1009.6 |
| 20260906005432 | 86 | 247 | 2.0 | 3.0 | 0.00 | 0.00 | 0.00 | 78 | 1009.5 |
| 20260906004434 | 86 | 178 | 0.0 | 3.0 | 0.00 | 0.00 | 0.00 | 78 | 1009.4 |
| 20260906003433 | 86 | 180 | 2.0 | 2.0 | 0.00 | 0.00 | 0.00 | 78 | 1009.2 |
| 20260906002432 | 86 | 129 | 0.0 | 2.0 | 0.00 | 0.00 | 0.00 | 78 | 1009.1 |
| 20260906001429 | 86 | 333 | 0.0 | 2.0 | 0.00 | 0.00 | 0.00 | 78 | 1009.0 |
| 20260906000433 | 86 | 323 | 1.0 | 1.0 | 0.00 | 0.00 | 0.00 | 78 | 1008.8 |
| 20260905235430 | 86 | 99 | 0.0 | 2.0 | 0.00 | 0.00 | 0.00 | 77 | 1008.8 |
| 20260905234430 | 86 | 210 | 0.0 | 2.0 | 0.00 | 0.00 | 0.00 | 77 | 1008.6 |
| 20260905233431 | 86 | 119 | 0.0 | 1.0 | 0.00 | 0.00 | 0.00 | 77 | 1008.7 |
| 20260905232908 | 86 | 242 | 0.0 | 0.0 | 0.00 | 0.00 | 0.00 | 77 | 1008.6 |
| 20260905232343 | 86 | 147 | 0.0 | 1.0 | 0.00 | 0.00 | 0.00 | 77 | 1008.4 |
| 20260905230427 | 86 | 40 | 0.0 | 1.0 | 0.00 | 0.00 | 0.00 | 77 | 1008.3 |
| 20260905225427 | 86 | 315 | 0.0 | 0.0 | 0.00 | 0.00 | 0.00 | 77 | 1008.3 |
| 20260905224914 | 86 | 89 | 0.0 | 1.0 | 0.00 | 0.00 | 0.00 | 77 | 1008.2 |
| 20260905223426 | 86 | 110 | 0.0 | 1.0 | 0.00 | 0.00 | 0.00 | 77 | 1008.2 |
| 20260905222425 | 86 | 135 | 0.0 | 0.0 | 0.00 | 0.00 | 0.00 | 77 | 1008.1 |
| 20260905221425 | 87 | 89 | 0.0 | 2.0 | 0.00 | 0.00 | 0.00 | 77 | 1008.0 |
| 20260905220425 | 87 | 89 | 0.0 | 2.0 | 0.00 | 0.00 | 0.00 | 77 | 1007.8 |
| 20260905215425 | 87 | 70 | 1.0 | 2.0 | 0.00 | 0.00 | 0.00 | 77 | 1007.8 |
| 20260905214423 | 87 | 124 | 0.0 | 2.0 | 0.00 | 0.00 | 0.00 | 77 | 1007.8 |
| 20260905213423 | 87 | 89 | 0.0 | 2.0 | 0.00 | 0.00 | 0.00 | 77 | 1007.5 |
| 20260905212905 | 87 | 195 | 0.0 | 1.0 | 0.00 | 0.00 | 0.00 | 77 | 1007.4 |
| 20260905211554 | 87 | 44 | 0.0 | 2.0 | 0.00 | 0.00 | 0.00 | 77 | 1007.5 |
| 20260905210549 | 87 | 226 | 1.0 | 2.0 | 0.00 | 0.00 | 0.00 | 77 | 1007.6 |
| 20260905205408 | 87 | 106 | 0.0 | 1.0 | 0.00 | 0.00 | 0.00 | 77 | 1007.5 |
| 20260905204407 | 87 | 326 | 0.0 | 0.0 | 0.00 | 0.00 | 0.00 | 77 | 1007.6 |
| 20260905203539 | 87 | 322 | 0.0 | 2.0 | 0.00 | 0.00 | 0.00 | 77 | 1007.7 |
| 20260905202534 | 87 | 104 | 1.0 | 1.0 | 0.00 | 0.00 | 0.00 | 77 | 1007.6 |
| 20260905201531 | 87 | 142 | 0.0 | 2.0 | 0.00 | 0.00 | 0.00 | 77 | 1007.7 |
| 20260905200529 | 87 | 135 | 0.0 | 2.0 | 0.00 | 0.00 | 0.00 | 77 | 1007.7 |
| 20260905195526 | 87 | 135 | 0.0 | 2.0 | 0.00 | 0.00 | 0.00 | 77 | 1007.7 |
| 20260905194521 | 87 | 44 | 0.0 | 2.0 | 0.00 | 0.00 | 0.00 | 77 | 1007.7 |
| 20260905193521 | 87 | 129 | 0.0 | 0.0 | 0.00 | 0.00 | 0.00 | 76 | 1007.5 |
| 20260905192515 | 87 | 315 | 0.0 | 1.0 | 0.00 | 0.00 | 0.00 | 76 | 1007.8 |
| 20260905191514 | 87 | 135 | 0.0 | 2.0 | 0.00 | 0.00 | 0.00 | 76 | 1007.9 |
| 20260905190511 | 87 | 62 | 0.0 | 0.0 | 0.00 | 0.00 | 0.00 | 76 | 1007.9 |
| 20260905185509 | 88 | 89 | 0.0 | 0.0 | 0.00 | 0.00 | 0.00 | 76 | 1008.1 |
| 20260905184504 | 88 | 117 | 0.0 | 1.0 | 0.00 | 0.00 | 0.00 | 75 | 1008.1 |
| 20260905183501 | 88 | 242 | 0.0 | 0.0 | 0.00 | 0.00 | 0.00 | 75 | 1008.1 |
| 20260905182502 | 88 | 246 | 0.0 | 1.0 | 0.00 | 0.00 | 0.00 | 75 | 1008.1 |
| 20260905181500 | 88 | 117 | 0.0 | 1.0 | 0.00 | 0.00 | 0.00 | 75 | 1008.2 |
| 20260905180455 | 88 | 62 | 0.0 | 0.0 | 0.00 | 0.00 | 0.00 | 75 | 1008.3 |
| 20260905175449 | 88 | 224 | 0.0 | 1.0 | 0.00 | 0.00 | 0.00 | 74 | 1008.5 |
| 20260905174444 | 88 | 242 | 0.0 | 1.0 | 0.00 | 0.00 | 0.00 | 74 | 1008.6 |
| 20260905173953 | 88 | 89 | 0.0 | 1.0 | 0.00 | 0.00 | 0.00 | 74 | 1008.7 |
| 20260905172439 | 88 | 129 | 0.0 | 1.0 | 0.00 | 0.00 | 0.00 | 74 | 1008.9 |
| 20260905171434 | 88 | 333 | 0.0 | 1.0 | 0.00 | 0.00 | 0.00 | 74 | 1009.0 |
| 20260905170500 | 88 | 89 | 0.0 | 2.0 | 0.00 | 0.00 | 0.00 | 74 | 1009.0 |
| 20260905165427 | 88 | 135 | 0.0 | 1.0 | 0.00 | 0.00 | 0.00 | 73 | 1009.3 |
| 20260905164426 | 88 | 294 | 0.0 | 2.0 | 0.00 | 0.00 | 0.00 | 73 | 1009.3 |
| 20260905163417 | 88 | 315 | 0.0 | 2.0 | 0.00 | 0.00 | 0.00 | 73 | 1009.5 |
| 20260905162414 | 88 | 135 | 0.0 | 1.0 | 0.00 | 0.00 | 0.00 | 73 | 1009.6 |
| 20260905161407 | 88 | 117 | 0.0 | 1.0 | 0.00 | 0.00 | 0.00 | 72 | 1009.7 |
| 20260905160404 | 89 | 343 | 0.0 | 2.0 | 0.00 | 0.00 | 0.00 | 72 | 1009.7 |
| 20260905155856 | 89 | 37 | 0.0 | 2.0 | 0.00 | 0.00 | 0.00 | 72 | 1009.6 |
| 20260905154406 | 89 | 111 | 0.0 | 3.0 | 0.00 | 0.00 | 0.00 | 72 | 1009.5 |
| 20260905153405 | 89 | 235 | 0.0 | 2.0 | 0.00 | 0.00 | 0.00 | 72 | 1009.7 |
| 20260905152406 | 89 | 315 | 0.0 | 1.0 | 0.00 | 0.00 | 0.00 | 72 | 1009.7 |
| 20260905151406 | 89 | 160 | 0.0 | 1.0 | 0.00 | 0.00 | 0.00 | 71 | 1009.7 |
| 20260905150405 | 89 | 69 | 0.0 | 2.0 | 0.00 | 0.00 | 0.00 | 71 | 1009.5 |
| 20260905145406 | 89 | 217 | 0.0 | 1.0 | 0.00 | 0.00 | 0.00 | 70 | 1009.5 |
| 20260905144410 | 89 | 103 | 0.0 | 2.0 | 0.00 | 0.00 | 0.00 | 69 | 1009.3 |
| 20260905143405 | 89 | 76 | 0.0 | 2.0 | 0.00 | 0.00 | 0.00 | 69 | 1009.2 |
| 20260905142405 | 89 | 135 | 0.0 | 0.0 | 0.00 | 0.00 | 0.00 | 69 | 1008.8 |
| 20260905141902 | 89 | 154 | 0.0 | 1.0 | 0.00 | 0.00 | 0.00 | 69 | 1008.8 |
| 20260905140850 | 89 | 225 | 0.0 | 1.0 | 0.00 | 0.00 | 0.00 | 68 | 1008.5 |
| 20260905135404 | 89 | 134 | 0.0 | 1.0 | 0.00 | 0.00 | 0.00 | 68 | 1008.3 |
| 20260905134403 | 89 | 102 | 0.0 | 1.0 | 0.00 | 0.00 | 0.00 | 67 | 1008.3 |
| 20260905133403 | 89 | 322 | 0.0 | 2.0 | 0.00 | 0.00 | 0.00 | 67 | 1008.4 |
| 20260905132402 | 90 | 137 | 0.0 | 3.0 | 0.00 | 0.00 | 0.00 | 66 | 1008.3 |
| 20260905131401 | 90 | 106 | 0.0 | 5.0 | 0.00 | 0.00 | 0.00 | 66 | 1008.0 |
| 20260905130401 | 90 | 126 | 0.0 | 3.0 | 0.00 | 0.00 | 0.00 | 66 | 1008.2 |
| 20260905125400 | 90 | 135 | 0.0 | 2.0 | 0.00 | 0.00 | 0.00 | 65 | 1008.3 |
| 20260905124400 | 90 | 47 | 1.0 | 5.0 | 0.00 | 0.00 | 0.00 | 65 | 1008.2 |
| 20260905123400 | 90 | 105 | 2.0 | 4.0 | 0.00 | 0.00 | 0.00 | 63 | 1008.0 |
| 20260905122359 | 91 | 260 | 2.0 | 9.0 | 0.00 | 0.00 | 0.00 | 62 | 1007.8 |
| 20260905121359 | 91 | 276 | 2.0 | 6.0 | 0.00 | 0.00 | 0.00 | 62 | 1007.7 |
| 20260905120358 | 91 | 209 | 2.0 | 10.0 | 0.00 | 0.00 | 0.00 | 62 | 1007.2 |
| 20260905115358 | 91 | 10 | 0.0 | 10.0 | 0.00 | 0.00 | 0.00 | 62 | 1006.8 |
| 20260905115318 | 91 | 222 | 2.0 | 9.0 | 0.00 | 0.00 | 0.00 | 61 | 1006.5 |
| 20260905113357 | 91 | 278 | 4.0 | 6.0 | 0.00 | 0.00 | 0.00 | 61 | 1006.4 |
| 20260905112356 | 91 | 259 | 0.0 | 4.0 | 0.00 | 0.00 | 0.00 | 60 | 1006.3 |
| 20260905112230 | 91 | 172 | 0.0 | 4.0 | 0.00 | 0.00 | 0.00 | 58 | 1005.9 |
| 20260905112222 | 91 | 232 | 1.0 | 2.0 | 0.00 | 0.00 | 0.00 | 59 | 1005.8 |
| 20260905105355 | 91 | 251 | 3.0 | 3.0 | 0.00 | 0.00 | 0.00 | 58 | 1005.5 |
| 20260905104354 | 91 | 316 | 0.0 | 4.0 | 0.00 | 0.00 | 0.00 | 57 | 1005.1 |
| 20260905103354 | 91 | 314 | 1.0 | 5.0 | 0.00 | 0.00 | 0.00 | 57 | 1005.1 |
| 20260905102354 | 91 | 248 | 3.0 | 5.0 | 0.00 | 0.00 | 0.00 | 58 | 1005.0 |
| 20260905101353 | 92 | 243 | 1.0 | 5.0 | 0.00 | 0.00 | 0.00 | 57 | 1004.9 |
| 20260905100352 | 92 | 234 | 3.0 | 5.0 | 0.00 | 0.00 | 0.00 | 57 | 1005.1 |
| 20260905095352 | 92 | 230 | 2.0 | 7.0 | 0.00 | 0.00 | 0.00 | 57 | 1005.0 |
| 20260905094833 | 92 | 288 | 3.0 | 4.0 | 0.00 | 0.00 | 0.00 | 56 | 1005.0 |
| 20260905093351 | 92 | 255 | 1.0 | 4.0 | 0.00 | 0.00 | 0.00 | 56 | 1004.7 |
| 20260905092351 | 92 | 252 | 2.0 | 6.0 | 0.00 | 0.00 | 0.00 | 56 | 1004.8 |
| 20260905091350 | 92 | 353 | 2.0 | 5.0 | 0.00 | 0.00 | 0.00 | 57 | 1004.6 |
| 20260905090350 | 92 | 53 | 0.0 | 6.0 | 0.00 | 0.00 | 0.00 | 57 | 1004.7 |
| 20260905085349 | 92 | 319 | 2.0 | 5.0 | 0.00 | 0.00 | 0.00 | 57 | 1004.7 |
| 20260905085306 | 91 | 248 | 3.0 | 5.0 | 0.00 | 0.00 | 0.00 | 58 | 1005.0 |
| 20260905083349 | 91 | 21 | 0.0 | 6.0 | 0.00 | 0.00 | 0.00 | 58 | 1005.1 |
| 20260905082348 | 91 | 349 | 2.0 | 5.0 | 0.00 | 0.00 | 0.00 | 57 | 1005.3 |
| 20260905081347 | 91 | 236 | 7.0 | 8.0 | 0.00 | 0.00 | 0.00 | 57 | 1005.4 |
| 20260905080347 | 91 | 311 | 2.0 | 8.0 | 0.00 | 0.00 | 0.00 | 57 | 1005.5 |
| 20260905075347 | 91 | 318 | 2.0 | 9.0 | 0.00 | 0.00 | 0.00 | 57 | 1005.6 |
| 20260905074346 | 91 | 275 | 1.0 | 7.0 | 0.00 | 0.00 | 0.00 | 57 | 1005.8 |
| 20260905073345 | 91 | 286 | 3.0 | 6.0 | 0.00 | 0.00 | 0.00 | 57 | 1005.8 |
| 20260905072346 | 91 | 341 | 3.0 | 9.0 | 0.00 | 0.00 | 0.00 | 58 | 1006.0 |
| 20260905071345 | 91 | 230 | 4.0 | 9.0 | 0.00 | 0.00 | 0.00 | 59 | 1006.1 |
| 20260905070516 | 91 | 252 | 3.0 | 9.0 | 0.00 | 0.00 | 0.00 | 58 | 1006.3 |
| 20260905065513 | 91 | 321 | 2.0 | 8.0 | 0.00 | 0.00 | 0.00 | 58 | 1006.6 |
| 20260905064513 | 91 | 273 | 0.0 | 8.0 | 0.00 | 0.00 | 0.00 | 58 | 1006.7 |
| 20260905063509 | 91 | 259 | 6.0 | 7.0 | 0.00 | 0.00 | 0.00 | 58 | 1006.9 |
| 20260905062458 | 90 | 257 | 5.0 | 11.0 | 0.00 | 0.00 | 0.00 | 60 | 1007.1 |
| 20260905061454 | 90 | 255 | 2.0 | 6.0 | 0.00 | 0.00 | 0.00 | 60 | 1007.3 |
| 20260905060451 | 90 | 318 | 0.0 | 6.0 | 0.00 | 0.00 | 0.00 | 61 | 1007.5 |
| 20260905055450 | 90 | 278 | 2.0 | 8.0 | 0.00 | 0.00 | 0.00 | 61 | 1008.0 |
| 20260905054444 | 90 | 286 | 3.0 | 6.0 | 0.00 | 0.00 | 0.00 | 61 | 1008.2 |
| 20260905053441 | 90 | 253 | 3.0 | 6.0 | 0.00 | 0.00 | 0.00 | 61 | 1008.5 |
| 20260905052440 | 89 | 12 | 2.0 | 6.0 | 0.00 | 0.00 | 0.00 | 61 | 1008.6 |
| 20260905051432 | 89 | 343 | 2.0 | 7.0 | 0.00 | 0.00 | 0.00 | 62 | 1008.8 |
| 20260905050430 | 89 | 232 | 4.0 | 8.0 | 0.00 | 0.00 | 0.00 | 62 | 1008.9 |
| 20260905045425 | 89 | 235 | 7.0 | 8.0 | 0.00 | 0.00 | 0.00 | 62 | 1009.1 |
| 20260905044423 | 89 | 297 | 2.0 | 9.0 | 0.00 | 0.00 | 0.00 | 62 | 1009.3 |
| 20260905043420 | 89 | 250 | 2.0 | 7.0 | 0.00 | 0.00 | 0.00 | 63 | 1009.3 |
| 20260905042415 | 89 | 328 | 2.0 | 8.0 | 0.00 | 0.00 | 0.00 | 64 | 1009.5 |
| 20260905041412 | 89 | 320 | 0.0 | 5.0 | 0.00 | 0.00 | 0.00 | 64 | 1009.6 |
| 20260905040409 | 88 | 219 | 2.0 | 6.0 | 0.00 | 0.00 | 0.00 | 65 | 1009.7 |
| 20260905035403 | 88 | 322 | 2.0 | 7.0 | 0.00 | 0.00 | 0.00 | 66 | 1009.7 |
| 20260905034357 | 88 | 296 | 1.0 | 6.0 | 0.00 | 0.00 | 0.00 | 65 | 1009.7 |
| 20260905033359 | 88 | 311 | 0.0 | 7.0 | 0.00 | 0.00 | 0.00 | 65 | 1009.7 |
| 20260905032355 | 88 | 322 | 3.0 | 7.0 | 0.00 | 0.00 | 0.00 | 66 | 1010.0 |
| 20260905031355 | 88 | 277 | 1.0 | 9.0 | 0.00 | 0.00 | 0.00 | 66 | 1009.8 |
| 20260905030350 | 88 | 220 | 2.0 | 5.0 | 0.00 | 0.00 | 0.00 | 66 | 1010.1 |
| 20260905025847 | 88 | 238 | 4.0 | 5.0 | 0.00 | 0.00 | 0.00 | 66 | 1010.1 |
| 20260905024344 | 88 | 207 | 1.0 | 6.0 | 0.00 | 0.00 | 0.00 | 66 | 1010.1 |
| 20260905023339 | 88 | 271 | 0.0 | 6.0 | 0.00 | 0.00 | 0.00 | 66 | 1010.1 |
| 20260905022336 | 87 | 335 | 3.0 | 11.0 | 0.00 | 0.00 | 0.00 | 66 | 1010.2 |
| 20260905021333 | 87 | 311 | 0.0 | 6.0 | 0.00 | 0.00 | 0.00 | 67 | 1010.2 |